Terminal Aerodrome Forecast
Issued by NWS

Home | Current Version | Previous Version | Text Only | Print | Product List | Glossary On
Versions: 1 2 3 4 5 6 7 8 9 10 11 12 13 14 15 16 17 18 19 20 21 22 23 24 25 26 27 28 29 30 31 32 33 34 35 36 37 38 39 40 41 42 43 44 45 46 47 48 49 50
000
FTUS41 KCTP 010919 AAD
TAFUNV
TAF AMD
KUNV 010919Z 0109/0206 00000KT 1/4SM FG OVC001
     FM011400 00000KT 3SM BR SCT025
     FM011600 14003KT P6SM BKN050
     FM020000 10003KT P6SM SCT050=

USA.gov is the U.S. government's official web portal to all federal, state and local government web resources and services.